Total_Precipitation_Accumulation
0.00 0.01 0.04 0.08 0.10 0.14 0.15 0.19 0.22 0.22 0.23 0.30 0.40 0.61 0.82 0.93 1.11 1.24 1.23 1.35 1.74 2.15 2.45 2.73 2.87 3.10 3.43 3.75 4.03 4.34 4.83 5.10 4.94 4.95 4.87 4.71 4.39 4.19 3.81 3.34 2.99 2.93 2.95 3.20
0.01 0.02 0.04 0.05 0.06 0.09 0.13 0.15 0.20 0.22 0.24 0.31 0.36 0.59 0.80 0.82 1.01 1.16 1.27 1.43 1.58 1.79 2.27 2.54 2.56 2.80 3.04 3.56 4.07 4.43 4.48 4.43 4.26 4.49 4.89 5.12 5.03 4.47 3.83 3.45 3.30 2.93 2.88 3.03
0.03 0.05 0.04 0.03 0.04 0.05 0.12 0.15 0.20 0.22 0.24 0.36 0.47 0.92 1.03 0.92 1.00 1.09 1.17 1.34 1.48 1.65 1.83 2.15 2.18 2.27 2.49 2.99 3.52 3.68 3.57 3.53 3.41 3.54 3.95 4.26 4.51 4.24 3.89 3.55 3.28 2.91 2.80 2.80
0.03 0.03 0.03 0.04 0.04 0.04 0.09 0.09 0.12 0.17 0.29 0.50 0.56 1.08 1.28 1.26 1.32 1.16 1.17 1.22 1.49 1.64 1.68 1.83 1.89 1.95 2.00 2.13 2.39 2.59 2.82 2.93 2.94 2.99 3.22 3.45 3.71 3.74 3.65 3.56 3.23 2.87 2.57 2.54
0.03 0.03 0.03 0.06 0.05 0.04 0.07 0.07 0.10 0.16 0.27 0.50 0.53 0.77 1.31 1.52 1.53 1.27 1.19 1.19 1.34 1.35 1.42 1.56 1.64 1.65 1.70 1.84 2.06 2.31 2.62 2.79 2.87 2.85 2.95 3.16 3.49 3.53 3.34 3.20 3.23 2.99 2.72 2.45
0.05 0.05 0.06 0.06 0.06 0.05 0.06 0.08 0.15 0.22 0.34 0.76 0.66 0.76 1.24 1.44 1.29 1.23 1.12 1.04 1.13 1.08 1.21 1.41 1.52 1.57 1.59 1.67 1.91 2.14 2.39 2.42 2.53 2.59 2.60 2.68 2.89 3.04 2.90 2.74 2.75 2.63 2.53 2.41
0.13 0.12 0.10 0.07 0.07 0.06 0.09 0.16 0.55 0.97 1.15 1.11 0.69 0.81 1.29 1.17 1.01 1.01 1.02 1.08 1.11 1.05 1.03 1.21 1.39 1.40 1.53 1.64 1.76 1.90 2.06 2.17 2.19 2.23 2.16 2.14 2.23 2.39 2.40 2.31 2.34 2.27 2.09 1.99
0.23 0.25 0.17 0.09 0.08 0.10 0.14 0.24 0.72 1.04 1.03 1.01 0.85 1.23 1.43 1.01 0.94 0.94 0.87 0.84 0.85 0.80 0.77 0.87 1.04 1.15 1.30 1.46 1.54 1.66 1.79 1.92 2.01 2.06 2.08 2.05 2.02 2.09 2.19 2.29 2.15 2.09 1.86 1.72
0.16 0.17 0.12 0.09 0.08 0.12 0.23 0.30 0.34 0.57 0.69 1.05 1.27 1.49 1.31 1.01 1.05 0.99 0.95 0.85 0.84 0.83 0.77 0.76 0.86 0.96 1.02 1.12 1.23 1.35 1.50 1.66 1.84 1.83 1.96 1.94 1.82 1.91 2.10 2.21 2.12 2.02 1.99 1.87
0.08 0.10 0.12 0.09 0.11 0.16 0.18 0.23 0.31 0.47 0.73 1.05 1.26 1.65 1.85 1.57 1.36 1.11 1.12 1.03 0.95 0.85 0.73 0.72 0.72 0.74 0.72 0.84 1.12 1.27 1.43 1.58 1.63 1.61 1.57 1.50 1.57 1.76 1.92 1.91 1.84 1.98 2.05 2.05
0.08 0.09 0.12 0.15 0.15 0.18 0.20 0.23 0.30 0.39 0.50 0.82 1.26 1.49 1.31 1.33 1.27 1.23 1.10 1.05 0.97 0.85 0.71 0.68 0.78 0.79 0.76 0.84 1.05 1.10 1.17 1.37 1.45 1.42 1.32 1.32 1.40 1.52 1.61 1.62 1.63 1.79 1.87 1.94
0.09 0.10 0.18 0.22 0.19 0.17 0.19 0.22 0.32 0.50 0.55 0.67 1.00 1.26 0.88 1.00 1.01 0.89 0.84 0.84 0.74 0.71 0.64 0.63 0.73 0.88 1.01 1.13 1.08 0.96 0.98 1.04 1.18 1.24 1.24 1.28 1.32 1.30 1.28 1.31 1.44 1.53 1.59 1.63
0.13 0.17 0.32 0.52 0.51 0.31 0.26 0.22 0.26 0.33 0.44 0.54 0.85 1.16 0.95 0.94 1.01 0.93 0.88 0.87 0.76 0.69 0.65 0.68 0.78 0.84 0.87 1.02 1.16 0.99 0.96 1.05 1.16 1.22 1.30 1.39 1.41 1.32 1.22 1.24 1.33 1.34 1.30 1.33
0.12 0.14 0.27 0.52 0.47 0.36 0.32 0.28 0.29 0.35 0.46 0.51 0.61 0.91 1.02 1.01 0.98 0.96 0.92 0.82 0.79 0.73 0.63 0.67 0.80 0.96 0.96 0.94 1.04 0.98 0.96 1.04 1.19 1.41 1.64 1.66 1.56 1.46 1.36 1.26 1.26 1.26 1.21 1.29
0.13 0.12 0.14 0.19 0.26 0.34 0.37 0.29 0.28 0.29 0.33 0.50 0.51 0.68 0.91 0.97 0.89 0.92 0.96 0.75 0.67 0.74 0.70 0.65 0.76 0.94 1.04 1.06 1.07 1.02 1.06 1.12 1.28 1.52 1.68 1.74 1.73 1.63 1.54 1.41 1.33 1.28 1.28 1.27
0.21 0.19 0.20 0.22 0.30 0.36 0.36 0.30 0.24 0.22 0.23 0.32 0.43 0.64 0.73 0.69 0.76 0.80 0.77 0.75 0.75 0.84 0.80 0.74 0.75 0.81 0.98 1.08 1.14 1.17 1.25 1.30 1.36 1.39 1.44 1.58 1.67 1.66 1.59 1.42 1.34 1.37 1.36 1.33
0.35 0.35 0.31 0.34 0.34 0.41 0.45 0.35 0.29 0.26 0.25 0.36 0.56 0.76 0.73 0.70 0.78 0.73 0.66 0.66 0.80 0.86 0.77 0.72 0.75 0.79 0.87 0.91 1.01 1.26 1.28 1.25 1.27 1.35 1.45 1.59 1.63 1.57 1.51 1.37 1.35 1.37 1.36 1.38
0.33 0.42 0.42 0.44 0.56 0.72 0.49 0.30 0.30 0.34 0.37 0.46 0.58 0.62 0.64 0.62 0.68 0.71 0.64 0.61 0.62 0.68 0.66 0.68 0.74 0.81 0.83 0.80 0.80 0.91 1.05 1.17 1.25 1.31 1.39 1.50 1.53 1.57 1.62 1.55 1.44 1.44 1.45 1.41
0.30 0.46 0.51 0.58 0.75 0.64 0.44 0.38 0.40 0.48 0.57 0.60 0.65 0.64 0.64 0.66 0.73 0.84 0.71 0.63 0.57 0.55 0.59 0.70 0.83 0.80 0.79 0.79 0.80 0.89 1.05 1.19 1.33 1.39 1.42 1.44 1.53 1.68 1.70 1.58 1.53 1.56 1.54 1.45
0.37 0.46 0.64 0.71 0.90 0.85 0.66 0.49 0.43 0.56 0.97 0.73 0.69 0.72 0.73 0.77 0.95 1.03 0.78 0.68 0.65 0.66 0.69 0.67 0.67 0.67 0.72 0.83 0.92 1.00 1.16 1.36 1.45 1.47 1.55 1.63 1.66 1.76 1.87 1.89 1.82 1.74 1.71 1.63
0.79 0.76 0.73 0.85 0.99 0.85 0.62 0.51 0.58 1.01 1.26 0.90 0.82 0.82 0.83 0.93 0.91 0.86 0.76 0.67 0.65 0.68 0.70 0.71 0.75 0.77 0.82 0.85 1.02 1.21 1.33 1.43 1.50 1.53 1.56 1.73 1.83 1.93 2.09 2.26 2.17 2.10 2.02 1.98
1.05 1.11 1.08 1.10 1.26 1.25 0.77 0.64 0.95 1.20 0.99 0.98 1.00 0.95 0.98 0.87 0.73 0.72 0.74 0.68 0.64 0.66 0.77 0.84 0.95 1.00 0.93 0.94 1.07 1.24 1.35 1.42 1.58 1.62 1.69 1.74 1.87 1.96 2.12 2.49 2.48 2.51 2.49 2.33
1.16 1.29 1.40 1.39 1.40 1.14 0.99 1.04 1.08 1.14 1.05 1.03 0.91 0.81 0.86 0.83 0.78 0.80 0.88 0.86 0.76 0.72 0.80 0.87 1.02 1.10 1.13 1.20 1.32 1.49 1.54 1.60 1.67 1.82 1.94 1.99 2.06 2.22 2.33 2.49 2.54 2.57 2.55 2.43
1.12 1.03 1.38 1.53 1.42 1.29 1.16 1.05 1.10 1.25 1.15 0.98 0.85 0.82 0.86 0.86 0.78 0.74 0.78 0.84 0.83 0.80 0.88 0.99 1.09 1.28 1.38 1.44 1.56 1.70 1.79 1.86 1.97 2.11 2.22 2.26 2.29 2.29 2.35 2.50 2.52 2.53 2.51 2.40
1.09 1.07 1.40 1.66 1.60 1.58 1.38 1.08 1.00 1.03 0.96 0.85 0.87 0.86 0.88 0.94 0.88 0.78 0.75 0.77 0.84 0.96 1.05 1.13 1.26 1.42 1.48 1.58 1.66 1.78 1.97 2.13 2.19 2.20 2.22 2.22 2.26 2.38 2.46 2.45 2.44 2.50 2.55 2.53
1.29 1.28 1.58 1.89 1.66 1.63 1.52 1.23 1.06 0.93 0.84 0.82 0.97 1.01 0.93 0.94 0.95 0.91 0.89 0.90 0.95 1.03 1.16 1.28 1.40 1.51 1.59 1.75 1.89 1.99 2.15 2.36 2.52 2.46 2.37 2.38 2.45 2.50 2.49 2.45 2.40 2.45 2.38 2.33